Showing default

HONGYUN 1, 43871

Orbit data source: Space-Track

HONGYUN 1, 43871 is a payload satellite owned by CASIC (CN) in SSO that was launched on Fri, 21 Dec 2018 UTC via a CHANG ZHENG 11 launch vehicle from the Jiuquan Satellite Launch Center, China (JSC). Payload-class satellites include a variety of spacecraft equipped with specific instruments for various scientific and technological missions. These include communications satellites like Starlink; space stations such as the ISS; scientific satellites like the Hubble; Earth observation satellites from companies like Planet Labs, Umbra, and HawkEye 360; GPS; miniature CubeSats for education and research; and military/defense satellites.

Loading next visibility...
Identifier
43871, 2018-108A
Orbit
SSO
Country
Flag of CNCN / PRC
Related business
Manufacturer
CASIC
Mission
Operational Civil Communications
Bus & Motor
HONGYUN, Unknown motor
Mass
~250 kg wet, ~250 kg dry
Launch date (UTC)
2018-12-21 (7 years ago)
Launch vehicle
CHANG ZHENG 11
Launch site
Jiuquan Satellite Launch Center, China (JSC)
Object type
Payload
Rocket body
Debris
Shape & HBR
Box + 2 Pan, 2.0 m
Radar Cross Section
1.356 m², Large (>1 m²)

Expand to show TLE details & history
Last TLE update: 3 hours ago

TLE from 3 hours ago
0 HONGYUN 1
1 43871U 18108A   25308.53522867  .00000008  00000-0  81671-4 0  9992
2 43871  99.7872 329.2725 0011082 213.2327 146.8112 13.50756742338758
Epoch: 2025-11-04T12:50Z
TLE epoch observation values (Epoch: 2025-11-04T12:50:43.757Z)
Latitude
-0.00004°
Longitude
92.56933°
Altitude
1,079.17 km
Speed
7.309 km/s
True Right ascension
21h 57m 05s
True Declination
0° 00' 00"
Sunlit
Object was in daylight at epoch
Visualization orbit readout
Latitude
Unknown
Longitude
Unknown
Altitude
Unknown
Speed
Unknown
Apparent Right ascension
Unknown
Apparent Declination
Unknown
Sunlit
N/A
Visualization observer readout
Local Sidereal Time
11:18:35
Azimuth
Unknown
Elevation
Unknown
Doppler factor
Unknown
Orbital elements
Apogee altitude
1,075.031 km
Perigee altitude
1,058.53 km
Semi-major axis
7,444.917 km
Eccentricity
0.00111
Inclination
99.7872°
RAAN
329.2725°
Arg. of periapsis
213.2327°
True anomaly
146.88063°
Mean anomaly
146.8112°
Eccentric anomaly
146.84593°
Mean motion
3.37873 °/min
Orbital period
106.55 mins
BSTAR
0.000081671
Loading maneuver chart data...
Computing Atmospheric mass density...
Loading historical data...
Loading historical data...
Loading historical data...
Loading historical data...
Loading historical data...
Loading historical data...
Loading historical data...
Other satellites on launch #108 in the year 2018 (2018-12-21 UTC)

Documentation

Showing up to 5 results
|